DAL1649 KBOS-KMIA

Flight info

Callsign DAL1649
Flight time N/A
Altitude 38000
Route SSOXS7 SSOXS Q167 RIFLE HEADI Q97 KALDA Q101 SKARP Y313 HOAGG BNFSH3
Aircraft A21N/M-VGDW/C

Departure

Time 2026-05-06 00:52
Airport Boston Logan International Airport (KBOS)

Arrival

Time N/A
Airport Miami International Airport (KMIA)
Time Latitude Longitude Altitude Speed Heading
2026-05-06 00:35 42.36124 -71.02120 28 ft 0 kts 25°
2026-05-06 00:42 42.36112 -71.02127 28 ft 2 kts 38°
2026-05-06 00:43 42.36108 -71.02147 28 ft 2 kts 72°
2026-05-06 00:43 42.36100 -71.02167 28 ft 2 kts 58°
2026-05-06 00:43 42.36092 -71.02186 28 ft 2 kts 69°
2026-05-06 00:43 42.36090 -71.02202 28 ft 1 kts 100°
2026-05-06 00:44 42.36090 -71.02204 28 ft 0 kts 107°
2026-05-06 00:45 42.36073 -71.02166 28 ft 9 kts 123°
2026-05-06 00:45 42.36025 -71.02059 29 ft 17 kts 121°
2026-05-06 00:45 42.35949 -71.01897 30 ft 24 kts 118°
2026-05-06 00:46 42.35908 -71.01736 33 ft 14 kts 102°
2026-05-06 00:46 42.35895 -71.01655 34 ft 8 kts 102°
2026-05-06 00:46 42.35891 -71.01565 33 ft 8 kts 74°
2026-05-06 00:46 42.35936 -71.01527 32 ft 11 kts 22°
2026-05-06 00:47 42.36028 -71.01481 32 ft 17 kts 19°
2026-05-06 00:47 42.36163 -71.01415 31 ft 25 kts 21°
2026-05-06 00:47 42.36349 -71.01326 28 ft 32 kts 19°
2026-05-06 00:47 42.36558 -71.01224 29 ft 31 kts 20°
2026-05-06 00:48 42.36738 -71.01143 30 ft 20 kts
2026-05-06 00:48 42.36853 -71.01214 27 ft 19 kts 340°
2026-05-06 00:48 42.36957 -71.01139 28 ft 17 kts 37°
2026-05-06 00:48 42.37065 -71.01057 25 ft 19 kts 26°
2026-05-06 00:49 42.37185 -71.00979 29 ft 19 kts 26°
2026-05-06 00:49 42.37267 -71.00926 25 ft 9 kts 25°
2026-05-06 00:49 42.37357 -71.00877 25 ft 20 kts 21°
2026-05-06 00:49 42.37495 -71.00811 27 ft 22 kts 20°
2026-05-06 00:50 42.37649 -71.00735 29 ft 24 kts 19°
2026-05-06 00:50 42.37759 -71.00683 33 ft 15 kts 20°
2026-05-06 00:50 42.37835 -71.00619 32 ft 11 kts 64°
2026-05-06 00:50 42.37838 -71.00576 31 ft 3 kts 100°
2026-05-06 00:51 42.37811 -71.00502 29 ft 14 kts 139°
2026-05-06 00:51 42.37700 -71.00517 30 ft 23 kts 199°
2026-05-06 00:51 42.37357 -71.00682 28 ft 82 kts 199°
2026-05-06 00:51 42.36623 -71.01035 31 ft 139 kts 199°
2026-05-06 00:52 42.35635 -71.01517 313 ft 155 kts 200°
2026-05-06 00:52 42.34599 -71.02036 791 ft 161 kts 200°
2026-05-06 00:52 42.33558 -71.02411 1479 ft 156 kts 183°
2026-05-06 00:52 42.32562 -71.01586 2104 ft 197 kts 139°
2026-05-06 00:53 42.31863 -70.99794 2422 ft 233 kts 128°
2026-05-06 00:53 42.31175 -70.97676 2813 ft 261 kts 113°
2026-05-06 00:53 42.31027 -70.95139 3386 ft 285 kts 88°
2026-05-06 00:53 42.31391 -70.92406 3865 ft 302 kts 80°
2026-05-06 00:54 42.31865 -70.89608 4626 ft 306 kts 79°
2026-05-06 00:54 42.32324 -70.86791 5449 ft 309 kts 80°
2026-05-06 00:54 42.32760 -70.83941 6298 ft 311 kts 81°
2026-05-06 00:54 42.33073 -70.81038 7100 ft 313 kts 94°
2026-05-06 00:55 42.32664 -70.78206 7974 ft 305 kts 116°
2026-05-06 00:55 42.31836 -70.75571 8893 ft 305 kts 120°
2026-05-06 00:55 42.30931 -70.72969 9804 ft 307 kts 121°
2026-05-06 00:55 42.29951 -70.70394 10452 ft 314 kts 129°
2026-05-06 00:56 42.28435 -70.68239 10757 ft 322 kts 153°
2026-05-06 00:56 42.26369 -70.66937 11094 ft 334 kts 166°
2026-05-06 00:56 42.24143 -70.65922 11711 ft 342 kts 167°
2026-05-06 00:56 42.21867 -70.64922 12484 ft 346 kts 167°
2026-05-06 00:57 42.19561 -70.63898 13262 ft 350 kts 167°
2026-05-06 00:57 42.17270 -70.62871 14019 ft 354 kts 167°
2026-05-06 00:57 42.14879 -70.62090 14655 ft 353 kts 178°
2026-05-06 00:57 42.12446 -70.62156 15295 ft 349 kts 194°
2026-05-06 00:58 42.10089 -70.62977 15972 ft 350 kts 201°
2026-05-06 00:58 42.07766 -70.64001 16629 ft 354 kts 202°
2026-05-06 00:58 42.05417 -70.65065 17296 ft 358 kts 202°
2026-05-06 00:58 42.03040 -70.66135 17931 ft 362 kts 202°
2026-05-06 00:59 42.00634 -70.67207 18509 ft 366 kts 202°
2026-05-06 00:59 41.98198 -70.68286 19059 ft 370 kts 202°
2026-05-06 00:59 41.95730 -70.69374 19567 ft 374 kts 202°
2026-05-06 00:59 41.93246 -70.70467 20102 ft 378 kts 202°
2026-05-06 01:00 41.90734 -70.71569 20640 ft 381 kts 202°
2026-05-06 01:00 41.88203 -70.72678 21178 ft 384 kts 202°
2026-05-06 01:00 41.85655 -70.73797 21688 ft 387 kts 202°
2026-05-06 01:00 41.83180 -70.75113 22209 ft 387 kts 208°
2026-05-06 01:01 41.80761 -70.76724 22755 ft 390 kts 211°
2026-05-06 01:01 41.78378 -70.78475 23237 ft 392 kts 213°
2026-05-06 01:01 41.75998 -70.80303 23702 ft 395 kts 214°
2026-05-06 01:01 41.73606 -70.82160 24077 ft 399 kts 214°
2026-05-06 01:02 41.71189 -70.84028 24453 ft 402 kts 214°
2026-05-06 01:02 41.68750 -70.85895 24825 ft 406 kts 213°
2026-05-06 01:02 41.66285 -70.87762 25192 ft 409 kts 213°
2026-05-06 01:02 41.63796 -70.89631 25568 ft 412 kts 214°
2026-05-06 01:03 41.61285 -70.91509 25907 ft 415 kts 214°
2026-05-06 01:03 41.58754 -70.93408 26223 ft 418 kts 215°
2026-05-06 01:03 41.56341 -70.95558 26561 ft 417 kts 222°
2026-05-06 01:03 41.54182 -70.98138 26896 ft 415 kts 231°
2026-05-06 01:04 41.52348 -71.01097 27206 ft 414 kts 237°
2026-05-06 01:04 41.50658 -71.04216 27539 ft 416 kts 239°
2026-05-06 01:04 41.49033 -71.07414 27846 ft 418 kts 240°
2026-05-06 01:04 41.47430 -71.10663 28164 ft 420 kts 241°
2026-05-06 01:05 41.45830 -71.13931 28459 ft 422 kts 241°
2026-05-06 01:05 41.44216 -71.17214 28721 ft 425 kts 241°
2026-05-06 01:05 41.42581 -71.20513 28988 ft 428 kts 240°
2026-05-06 01:05 41.40927 -71.23827 29305 ft 430 kts 240°
2026-05-06 01:06 41.39265 -71.27135 29724 ft 429 kts 240°
2026-05-06 01:06 41.37604 -71.30426 30112 ft 428 kts 240°
2026-05-06 01:06 41.35944 -71.33711 30432 ft 428 kts 240°
2026-05-06 01:06 41.34283 -71.36996 30741 ft 428 kts 241°
2026-05-06 01:07 41.32645 -71.40234 31040 ft 427 kts 241°
2026-05-06 01:07 41.30981 -71.43523 31340 ft 427 kts 241°
2026-05-06 01:07 41.29322 -71.46799 31627 ft 427 kts 241°
2026-05-06 01:07 41.27660 -71.50077 31913 ft 427 kts 241°
2026-05-06 01:08 41.25999 -71.53353 32194 ft 427 kts 241°
2026-05-06 01:08 41.24336 -71.56625 32474 ft 426 kts 241°
2026-05-06 01:08 41.22681 -71.59878 32821 ft 424 kts 241°